Location: Clair
(33.8067°N, 117.9845°W)
Time: 07:48:22
(UTC+00:00)

ISS - Pass Details

Date: 14 February 2026
Orbit: 415 x 426 km, 51.6° (Epoch: 12 March)

Event Time Altitude Azimuth Distance (km) Brightness Sun altitude
Exits shadow 13:03:06 52° 3° (N) 526 -3.4 -20.1°
Drops below altitude 10° 13:05:53 10° 40° (NE) 1,490 -0.5 -19.5°
Sets 13:08:00 0° 44° (NE) 2,354 0.7 -19.1°
